Fosston, MN

1:51 PM CDT on September 30, 2016 (GMT -0500)
Fosston Municipal

Weather History for KFSE - October, 2013

Change the Weather History Date:

Wednesday, October 23, 2013

  Actual Average Record
Temperature  
Mean Temperature 29 °F -  
Max Temperature 32 °F 53 °F 83 °F (1963)
Min Temperature 26 °F 29 °F 10 °F (1976)
Degree Days  
Heating Degree Days 36    
Moisture  
Dew Point 22 °F    
Average Humidity 76    
Maximum Humidity 93    
Minimum Humidity 60    
Precipitation  
Precipitation 0.00 in - - ()
Sea Level Pressure  
Sea Level Pressure 30.06 in    
Wind  
Wind Speed 7 mph (NW)    
Max Wind Speed 16 mph    
Max Gust Speed 20 mph    
Visibility 10 miles    
Events Snow    
Averages and records for this station are not official NWS values.
T = Trace of Precipitation, MM = Missing Value Source: NWS Daily Summary

Daily Weather History Graph

Daily Weather History Graph

Search for Another Location

Airport or City:

Trip Planner

Search our weather history database for the weather conditions in past years. The results will help you decide how hot, cold, wet, or windy it might be!

Date:

Astronomy

Oct. 23, 2013 Rise Set
Actual Time 7:54 AM CDT 6:19 PM CDT
Civil Twilight 7:22 AM CDT 6:51 PM CDT
Nautical Twilight 6:46 AM CDT 7:27 PM CDT
Astronomical Twilight 6:10 AM CDT 8:02 PM CDT
Moon 9:41 PM CDT (10/23) 12:22 PM CDT (10/23)
Length of Visible Light 11h 29m
Length of Day
10h 25m
Waning Gibbous, 79% of the Moon is Illuminated
Oct 23
Waning Gibbous
Oct 26
Last Quarter
Nov 3
New
Nov 9
First Quarter
Nov 17
Full

Hourly Weather History & Observations

Time (CDT) Temp. Windchill Dew Point Humidity Pressure Visibility Wind Dir Wind Speed Gust Speed Precip Events Conditions
12:15 AM 28.4 °F - 26.6 °F 93% 30.01 in 10.0 mi Calm Calm - N/A   Overcast
12:35 AM 28.4 °F 22.2 °F 26.6 °F 93% 30.01 in 10.0 mi West 5.8 mph - N/A   Overcast
12:55 AM 28.4 °F - 26.6 °F 93% 30.01 in 10.0 mi Calm Calm - N/A   Overcast
1:15 AM 28.4 °F 21.2 °F 26.6 °F 93% 30.01 in 10.0 mi WNW 6.9 mph - N/A   Overcast
1:35 AM 28.4 °F 21.2 °F 24.8 °F 86% 30.01 in 10.0 mi NW 6.9 mph - N/A   Overcast
1:55 AM 28.4 °F 21.2 °F 24.8 °F 86% 30.01 in 10.0 mi NW 6.9 mph - N/A   Overcast
2:15 AM 28.4 °F 22.2 °F 23.0 °F 80% 30.01 in 10.0 mi NW 5.8 mph - N/A   Overcast
2:35 AM 28.4 °F - 23.0 °F 80% 30.01 in 10.0 mi Calm Calm - N/A   Overcast
2:55 AM 28.4 °F 22.2 °F 21.2 °F 74% 30.01 in 10.0 mi NW 5.8 mph - N/A   Overcast
3:15 AM 28.4 °F 23.3 °F 23.0 °F 80% 30.01 in 10.0 mi WNW 4.6 mph - N/A   Overcast
3:35 AM 26.6 °F - 23.0 °F 86% 30.00 in 10.0 mi Calm Calm - N/A   Overcast
3:55 AM 26.6 °F - 23.0 °F 86% 30.00 in 10.0 mi Calm Calm - N/A   Overcast
4:15 AM 26.6 °F 21.2 °F 21.2 °F 80% 30.00 in 10.0 mi WNW 4.6 mph - N/A   Overcast
4:35 AM 26.6 °F 21.2 °F 23.0 °F 86% 30.00 in 10.0 mi WNW 4.6 mph - N/A   Overcast
4:55 AM 26.6 °F 18.2 °F 23.0 °F 86% 30.00 in 10.0 mi WNW 8.1 mph - N/A   Overcast
5:15 AM 26.6 °F 16.8 °F 21.2 °F 80% 30.01 in 10.0 mi NW 10.4 mph - N/A   Overcast
5:20 AM 26.6 °F 16.2 °F 19.4 °F 74% 30.01 in 10.0 mi NW 11.5 mph - N/A   Overcast
5:43 AM 26.6 °F 16.8 °F 17.6 °F 69% 30.01 in 10.0 mi NW 10.4 mph - N/A   Overcast
6:14 AM 26.6 °F 19.1 °F 19.4 °F 74% 30.02 in 10.0 mi NW 6.9 mph - N/A   Overcast
7:04 AM 26.6 °F 21.2 °F 19.4 °F 74% 30.02 in 10.0 mi WNW 4.6 mph - N/A   Overcast
7:15 AM 26.6 °F 20.0 °F 19.4 °F 74% 30.02 in 10.0 mi WNW 5.8 mph - N/A   Overcast
7:35 AM 26.6 °F 21.2 °F 19.4 °F 74% 30.03 in 10.0 mi WNW 4.6 mph - N/A   Overcast
7:55 AM 26.6 °F 21.2 °F 19.4 °F 74% 30.03 in 10.0 mi WNW 4.6 mph - N/A   Overcast
8:15 AM 26.6 °F 19.1 °F 19.4 °F 74% 30.03 in 10.0 mi WNW 6.9 mph - N/A   Overcast
8:35 AM 26.6 °F 16.2 °F 19.4 °F 74% 30.04 in 10.0 mi NW 11.5 mph - N/A   Overcast
8:55 AM 26.6 °F 15.7 °F 19.4 °F 74% 30.04 in 10.0 mi NW 12.7 mph 17.3 mph N/A   Overcast
9:15 AM 26.6 °F 14.3 °F 19.4 °F 74% 30.05 in 10.0 mi NW 16.1 mph - N/A   Overcast
9:35 AM 26.6 °F 15.7 °F 19.4 °F 74% 30.05 in 10.0 mi NNW 12.7 mph - N/A   Overcast
9:55 AM 26.6 °F 15.2 °F 19.4 °F 74% 30.05 in 10.0 mi NW 13.8 mph 18.4 mph N/A   Overcast
10:15 AM 26.6 °F 16.2 °F 19.4 °F 74% 30.05 in 10.0 mi NNW 11.5 mph - N/A   Overcast
10:35 AM 28.4 °F 18.5 °F 19.4 °F 69% 30.06 in 10.0 mi NNW 11.5 mph - N/A   Overcast
10:55 AM 28.4 °F 17.5 °F 19.4 °F 69% 30.06 in 10.0 mi NNW 13.8 mph - N/A   Overcast
11:15 AM 30.2 °F 20.2 °F 19.4 °F 64% 30.06 in 10.0 mi NNW 12.7 mph - N/A   Overcast
11:35 AM 30.2 °F 20.2 °F 19.4 °F 64% 30.07 in 10.0 mi NNW 12.7 mph - N/A   Overcast
11:55 AM 30.2 °F 22.6 °F 19.4 °F 64% 30.07 in 10.0 mi NW 8.1 mph - N/A   Overcast
12:15 PM 32.0 °F 23.6 °F 19.4 °F 60% 30.07 in 10.0 mi NW 10.4 mph 18.4 mph N/A   Mostly Cloudy
12:35 PM 32.0 °F 21.6 °F 19.4 °F 60% 30.07 in 10.0 mi NW 15.0 mph 19.6 mph N/A   Overcast
12:55 PM 30.2 °F 19.3 °F 21.2 °F 69% 30.07 in 10.0 mi NW 15.0 mph 18.4 mph N/A   Overcast
1:15 PM 30.2 °F 21.3 °F 21.2 °F 69% 30.07 in 10.0 mi NNW 10.4 mph - N/A   Overcast
1:35 PM 30.2 °F 19.8 °F 21.2 °F 69% 30.07 in 10.0 mi NW 13.8 mph 18.4 mph N/A   Overcast
1:55 PM 30.2 °F 20.2 °F 21.2 °F 69% 30.07 in 10.0 mi NW 12.7 mph 16.1 mph N/A   Overcast
2:15 PM 30.2 °F 21.3 °F 21.2 °F 69% 30.07 in 10.0 mi NW 10.4 mph - N/A   Overcast
2:35 PM 30.2 °F 20.8 °F 21.2 °F 69% 30.06 in 10.0 mi NNW 11.5 mph - N/A   Overcast
2:55 PM 30.2 °F 20.8 °F 21.2 °F 69% 30.06 in 10.0 mi North 11.5 mph - N/A   Overcast
3:15 PM 30.2 °F 19.3 °F 21.2 °F 69% 30.07 in 10.0 mi NNW 15.0 mph - N/A   Overcast
3:35 PM 30.2 °F 19.8 °F 21.2 °F 69% 30.08 in 10.0 mi NNW 13.8 mph - N/A   Overcast
3:55 PM 30.2 °F 19.8 °F 19.4 °F 64% 30.08 in 10.0 mi NNW 13.8 mph 17.3 mph N/A   Overcast
4:15 PM 30.2 °F 21.3 °F 19.4 °F 64% 30.09 in 10.0 mi NNW 10.4 mph 16.1 mph N/A   Overcast
4:35 PM 30.2 °F 20.2 °F 19.4 °F 64% 30.09 in 10.0 mi NW 12.7 mph - N/A   Overcast
4:55 PM 30.2 °F 19.8 °F 19.4 °F 64% 30.09 in 10.0 mi NNW 13.8 mph - N/A   Overcast
5:15 PM 30.2 °F 20.8 °F 19.4 °F 64% 30.09 in 10.0 mi NNW 11.5 mph - N/A   Overcast
5:35 PM 30.2 °F 20.8 °F 19.4 °F 64% 30.09 in 10.0 mi NNW 11.5 mph - N/A   Overcast
5:55 PM 30.2 °F 24.3 °F 19.4 °F 64% 30.09 in 10.0 mi NW 5.8 mph - N/A   Overcast
6:16 PM 30.2 °F 24.3 °F 21.2 °F 69% 30.09 in 10.0 mi NW 5.8 mph - N/A   Overcast
6:35 PM 30.2 °F 24.3 °F 21.2 °F 69% 30.09 in 10.0 mi NW 5.8 mph - N/A   Overcast
6:55 PM 30.2 °F 26.7 °F 21.2 °F 69% 30.10 in 10.0 mi WNW 3.5 mph - N/A   Overcast
7:15 PM 30.2 °F 25.4 °F 21.2 °F 69% 30.10 in 10.0 mi West 4.6 mph - N/A   Overcast
7:35 PM 30.2 °F 23.4 °F 23.0 °F 75% 30.11 in 10.0 mi West 6.9 mph - N/A   Overcast
7:55 PM 30.2 °F 23.4 °F 23.0 °F 75% 30.11 in 10.0 mi WNW 6.9 mph - N/A   Overcast
8:15 PM 30.2 °F 25.4 °F 24.8 °F 80% 30.11 in 10.0 mi WNW 4.6 mph - N/A   Overcast
8:35 PM 30.2 °F 25.4 °F 24.8 °F 80% 30.10 in 10.0 mi WNW 4.6 mph - N/A   Overcast
8:55 PM 28.4 °F 23.3 °F 24.8 °F 86% 30.11 in 10.0 mi WNW 4.6 mph - N/A   Overcast
9:15 PM 28.4 °F 22.2 °F 24.8 °F 86% 30.11 in 10.0 mi WNW 5.8 mph - N/A   Overcast
9:35 PM 28.4 °F 21.2 °F 24.8 °F 86% 30.11 in 10.0 mi West 6.9 mph - N/A   Overcast
9:55 PM 28.4 °F 20.4 °F 24.8 °F 86% 30.11 in 10.0 mi WNW 8.1 mph - N/A   Overcast
10:15 PM 30.2 °F 22.6 °F 26.6 °F 86% 30.11 in 10.0 mi WNW 8.1 mph - N/A Snow Light Snow
10:35 PM 30.2 °F 22.6 °F 26.6 °F 86% 30.12 in 10.0 mi WNW 8.1 mph - N/A Snow Light Snow
10:55 PM 28.4 °F 21.2 °F 26.6 °F 93% 30.11 in 10.0 mi WNW 6.9 mph - N/A   Overcast
11:15 PM 30.2 °F 23.4 °F 28.4 °F 93% 30.12 in 10.0 mi WNW 6.9 mph - N/A Snow Light Snow
11:35 PM 30.2 °F 24.3 °F 28.4 °F 93% 30.12 in 10.0 mi WNW 5.8 mph - N/A   Overcast
11:55 PM 30.2 °F 21.9 °F 28.4 °F 93% 30.12 in 10.0 mi WNW 9.2 mph - N/A   Overcast